Location: Lecco
(45.8566°N, 9.3977°E)
Time: 18:13:03
(UTC+02:00)

Courier 1B Rocket - Pass Details

Date: 25 August 2019
Orbit: 920 x 1202 km, 28.2° (Epoch: 15 September)

Event Time Altitude Azimuth Distance (km) Brightness Sun altitude
Rises 07:02:00 0° 248° (WSW) 3,995 7.5 3.9°
Reaches altitude 10° 07:05:55 10° 229° (SW) 3,074 7.1 4.5°
Maximum altitude 07:10:28 17° 192° (SSW) 2,619 7.1 5.3°
Drops below altitude 10° 07:15:04 10° 156° (SSE) 3,124 7.9 6.1°
Sets 07:19:07 0° 137° (SE) 4,088 8.8 6.8°
